Weather History for Madisonville, KY

Change the Weather History Date:

Thursday, February 28, 2013

  Actual Average (KOWB) Record (KOWB)
Temperature  
Mean Temperature 36 °F -  
Max Temperature 39 °F 52 °F 76 °F (1976)
Min Temperature 34 °F 31 °F 5 °F (1993)
Degree Days  
Heating Degree Days 28    
Moisture  
Dew Point 32 °F    
Average Humidity 86    
Maximum Humidity 97    
Minimum Humidity 76    
Precipitation  
Precipitation 0.00 in - - ()
Sea Level Pressure  
Sea Level Pressure 29.98 in    
Wind  
Wind Speed 10 mph (WNW)    
Max Wind Speed 15 mph    
Max Gust Speed 21 mph    
Visibility 9 miles    
Events Snow    
Averages and records for this station are not official NWS values.
T = Trace of Precipitation, MM = Missing Value Source: NWS Daily Summary

Daily Weather History Graph

Daily Weather History Graph

Search for Another Location

Airport:

Trip Planner

Search our weather history database for the weather conditions in past years. The results will help you decide how hot, cold, wet, or windy it might be!

Date:

Astronomy

Feb. 28, 2013 Rise Set
Actual Time 6:21 AM CST 5:42 PM CST
Civil Twilight 5:55 AM CST 6:09 PM CST
Nautical Twilight 5:25 AM CST 6:39 PM CST
Astronomical Twilight 4:55 AM CST 7:09 PM CST
Moon 9:03 PM CST (2/28) 7:36 AM CST (2/28)
Length of Visible Light 12h 13m
Length of Day
11h 21m
Waning Gibbous, 90% of the Moon is Illuminated
Feb 28
Waning Gibbous
Mar 4
Last Quarter
Mar 11
New
Mar 19
First Quarter
Mar 27
Full

Hourly Weather History & Observations

Time (CST) Temp. Windchill Dew Point Humidity Pressure Visibility Wind Dir Wind Speed Gust Speed Precip Events Conditions
12:15 AM 35.1 °F 27.4 °F 32.2 °F 89% 29.87 in 10.0 mi West 10.4 mph - N/A   Mostly Cloudy
12:35 AM 35.1 °F 27.9 °F 32.0 °F 89% 29.87 in 10.0 mi West 9.2 mph - N/A   Overcast
1:15 AM 35.1 °F 29.3 °F 32.0 °F 89% 29.87 in 10.0 mi West 6.9 mph - N/A   Overcast
1:35 AM 34.9 °F 27.7 °F 32.0 °F 89% 29.87 in 10.0 mi WNW 9.2 mph - N/A   Overcast
1:55 AM 34.9 °F 27.7 °F 30.6 °F 84% 29.87 in 10.0 mi WNW 9.2 mph - N/A   Overcast
2:15 AM 34.7 °F 27.5 °F 30.9 °F 86% 29.87 in 10.0 mi West 9.2 mph - N/A   Overcast
2:35 AM 34.7 °F 27.5 °F 30.7 °F 85% 29.87 in 10.0 mi West 9.2 mph - N/A   Overcast
2:55 AM 34.7 °F 26.9 °F 30.9 °F 86% 29.87 in 10.0 mi West 10.4 mph - N/A   Overcast
3:15 AM 34.7 °F 26.9 °F 30.9 °F 86% 29.88 in 10.0 mi West 10.4 mph - N/A   Overcast
3:55 AM 34.7 °F 27.5 °F 31.1 °F 87% 29.89 in 10.0 mi West 9.2 mph - N/A   Overcast
4:15 AM 34.5 °F 26.7 °F 30.9 °F 87% 29.90 in 10.0 mi West 10.4 mph - N/A   Overcast
4:35 AM 34.3 °F 27.0 °F 31.1 °F 88% 29.90 in 10.0 mi West 9.2 mph - N/A   Overcast
4:55 AM 34.3 °F 25.9 °F 30.9 °F 87% 29.91 in 10.0 mi West 11.5 mph - N/A   Overcast
5:15 AM 34.2 °F 27.5 °F 31.1 °F 89% 29.91 in 10.0 mi West 8.1 mph - N/A   Overcast
5:35 AM 34.3 °F 25.9 °F 30.9 °F 87% 29.91 in 10.0 mi WNW 11.5 mph - N/A   Overcast
5:55 AM 34.2 °F 26.8 °F 31.1 °F 89% 29.92 in 10.0 mi West 9.2 mph - N/A   Overcast
6:15 AM 34.3 °F 27.7 °F 30.9 °F 87% 29.92 in 10.0 mi West 8.1 mph - N/A   Overcast
6:35 AM 34.3 °F 27.0 °F 30.9 °F 87% 29.93 in 10.0 mi West 9.2 mph - N/A   Overcast
6:55 AM 34.5 °F 27.3 °F 30.9 °F 87% 29.93 in 10.0 mi West 9.2 mph - N/A   Overcast
7:15 AM 34.3 °F 27.0 °F 31.1 °F 88% 29.94 in 10.0 mi West 9.2 mph - N/A   Overcast
7:35 AM 34.7 °F 26.4 °F 30.9 °F 86% 29.94 in 10.0 mi West 11.5 mph - N/A   Overcast
7:55 AM 34.7 °F 27.5 °F 31.1 °F 87% 29.95 in 10.0 mi West 9.2 mph - N/A   Overcast
8:15 AM 34.9 °F 26.6 °F 31.3 °F 87% 29.96 in 10.0 mi West 11.5 mph - N/A   Overcast
8:35 AM 35.1 °F 27.4 °F 31.5 °F 87% 29.96 in 10.0 mi West 10.4 mph - N/A   Overcast
8:55 AM 35.4 °F 27.8 °F 31.5 °F 85% 29.96 in 10.0 mi WNW 10.4 mph 17.3 mph N/A   Overcast
9:15 AM 35.6 °F 28.0 °F 31.6 °F 85% 29.97 in 10.0 mi WNW 10.4 mph 18.4 mph N/A   Overcast
9:35 AM 35.6 °F 26.6 °F 31.8 °F 86% 29.98 in 10.0 mi WNW 13.8 mph 19.6 mph N/A   Overcast
9:55 AM 36.0 °F 28.5 °F 32.0 °F 86% 29.98 in 10.0 mi WNW 10.4 mph 19.6 mph N/A   Overcast
10:15 AM 36.5 °F 28.2 °F 32.0 °F 84% 29.98 in 10.0 mi West 12.7 mph 18.4 mph N/A   Overcast
10:35 AM 36.9 °F 28.7 °F 32.4 °F 84% 29.98 in 10.0 mi WNW 12.7 mph - N/A   Overcast
10:55 AM 37.6 °F 29.1 °F 32.9 °F 83% 29.98 in 10.0 mi WNW 13.8 mph 17.3 mph N/A   Overcast
11:15 AM 37.4 °F 30.3 °F 32.0 °F 81% 29.99 in 10.0 mi WNW 10.4 mph 16.1 mph N/A   Overcast
11:35 AM 37.9 °F 29.2 °F 32.2 °F 80% 29.98 in 10.0 mi NW 15.0 mph - N/A   Overcast
11:55 AM 38.7 °F 30.9 °F 32.9 °F 80% 29.98 in 10.0 mi WNW 12.7 mph - N/A   Overcast
12:15 PM 39.6 °F 32.5 °F 32.7 °F 76% 29.98 in 10.0 mi NW 11.5 mph - N/A   Overcast
12:35 PM 39.4 °F 31.8 °F 32.7 °F 77% 29.98 in 10.0 mi NW 12.7 mph 20.7 mph N/A   Overcast
12:55 PM 39.2 °F 32.0 °F 32.4 °F 76% 29.98 in 10.0 mi WNW 11.5 mph - N/A   Overcast
1:15 PM 39.0 °F 30.6 °F 32.5 °F 78% 29.98 in 10.0 mi WNW 15.0 mph 19.6 mph N/A   Overcast
1:35 PM 38.8 °F 30.8 °F 32.4 °F 78% 29.98 in 10.0 mi NW 13.8 mph 18.4 mph N/A   Overcast
2:15 PM 39.6 °F 31.7 °F 33.3 °F 78% 29.99 in 10.0 mi West 13.8 mph - N/A   Overcast
2:35 PM 39.2 °F 32.0 °F 33.3 °F 79% 30.00 in 10.0 mi WNW 11.5 mph - N/A   Overcast
2:55 PM 39.0 °F 31.4 °F 33.6 °F 81% 30.01 in 10.0 mi WNW 12.7 mph - N/A   Overcast
3:15 PM 38.7 °F 30.9 °F 33.1 °F 80% 30.01 in 10.0 mi WNW 12.7 mph - N/A   Overcast
3:35 PM 38.7 °F 30.9 °F 33.3 °F 81% 30.02 in 10.0 mi WNW 12.7 mph 17.3 mph N/A   Overcast
3:55 PM 38.8 °F 31.6 °F 33.3 °F 80% 30.02 in 10.0 mi NW 11.5 mph 17.3 mph N/A   Overcast
4:15 PM 38.8 °F 33.2 °F 33.4 °F 81% 30.03 in 10.0 mi WNW 8.1 mph - N/A   Overcast
4:35 PM 38.8 °F 32.1 °F 33.3 °F 80% 30.03 in 10.0 mi WNW 10.4 mph - N/A   Overcast
4:55 PM 38.7 °F 31.4 °F 33.4 °F 81% 30.04 in 10.0 mi WNW 11.5 mph - N/A   Overcast
5:15 PM 38.5 °F 31.6 °F 33.3 °F 81% 30.04 in 10.0 mi NW 10.4 mph 17.3 mph N/A   Overcast
5:35 PM 38.3 °F 32.5 °F 33.6 °F 83% 30.04 in 10.0 mi NW 8.1 mph - N/A   Overcast
5:55 PM 38.3 °F 30.5 °F 33.6 °F 83% 30.04 in 10.0 mi NW 12.7 mph 19.6 mph N/A   Overcast
6:15 PM 37.9 °F 29.6 °F 33.6 °F 84% 30.04 in 10.0 mi NW 13.8 mph - N/A   Light Drizzle
6:35 PM 37.4 °F 29.8 °F 33.8 °F 87% 30.04 in 10.0 mi NW 11.5 mph - N/A   Overcast
6:55 PM 37.4 °F 32.1 °F 33.8 °F 87% 30.05 in 10.0 mi NW 6.9 mph - N/A   Overcast
7:15 PM 37.4 °F 31.4 °F 33.8 °F 87% 30.05 in 10.0 mi NW 8.1 mph - N/A   Overcast
7:35 PM 37.4 °F 30.8 °F 33.8 °F 87% 30.05 in 10.0 mi WNW 9.2 mph - N/A   Overcast
7:55 PM 37.4 °F 30.8 °F 33.6 °F 86% 30.05 in 10.0 mi WNW 9.2 mph - N/A   Overcast
8:15 PM 37.0 °F 31.0 °F 33.3 °F 86% 30.06 in 10.0 mi WNW 8.1 mph - N/A   Overcast
8:35 PM 36.9 °F 30.1 °F 33.4 °F 87% 30.06 in 7.0 mi WNW 9.2 mph - N/A   Overcast
8:55 PM 36.7 °F 29.9 °F 33.8 °F 89% 30.07 in 7.0 mi WNW 9.2 mph - N/A Snow Light Snow
9:15 PM 36.5 °F 30.3 °F 33.8 °F 90% 30.07 in 7.0 mi WNW 8.1 mph - N/A Snow Light Snow
9:35 PM 36.3 °F 30.1 °F 34.0 °F 91% 30.06 in 7.0 mi WNW 8.1 mph - N/A Snow Light Snow
9:55 PM 35.8 °F 28.8 °F 34.0 °F 93% 30.06 in 7.0 mi NW 9.2 mph - N/A Snow Light Snow
10:15 PM 35.6 °F 28.6 °F 33.8 °F 93% 30.06 in 7.0 mi NW 9.2 mph - N/A   Overcast
10:35 PM 35.6 °F 30.7 °F 34.0 °F 94% 30.05 in 5.0 mi WNW 5.8 mph - N/A Snow Light Snow
10:55 PM 35.6 °F 29.2 °F 33.8 °F 93% 30.05 in 5.0 mi WNW 8.1 mph - N/A Snow Light Snow
11:15 PM 35.2 °F 29.5 °F 33.8 °F 94% 30.05 in 5.0 mi WNW 6.9 mph - N/A Snow Light Snow
11:35 PM 35.2 °F 29.5 °F 34.0 °F 95% 30.04 in 4.0 mi WNW 6.9 mph - N/A Snow Light Snow
11:55 PM 34.9 °F 29.9 °F 34.0 °F 97% 30.04 in 4.0 mi WNW 5.8 mph - N/A Snow Light Snow